Regional Weather Roundup
Issued by NWS

Home | Current Version | Previous Version | Graphics & Text | Print | Product List | Glossary On
Versions: 1 2 3 4 5 6 7 8 9 10 11 12 13 14 15 16 17 18 19 20 21 22 23 24 25 26 27 28 29 30 31 32 33 34 35 36 37 38 39 40 41 42 43 44 45 46 47 48 49 50
000
ASUS43 KMKX 270900
RWRWI

WISCONSIN REGIONAL WEATHER ROUNDUP
NATIONAL WEATHER SERVICE MILWAUKEE/SULLIVAN WI
400 AM CDT MON APR 27 2015

NOTE: "FAIR" INDICATES FEW OR NO CLOUDS BELOW 12,000 FEET WITH NO
SIGNIFICANT WEATHER AND/OR OBSTRUCTIONS TO VISIBILITY.

WIZ001-002-006>008-014>016-023>028-271000-
NORTHWEST WISCONSIN

CITY           SKY/WX    TMP DP  RH WIND       PRES   REMARKS
SUPERIOR ARPT  CLEAR     26  26  98 CALM      30.21R
ASHLAND        CLEAR     27  26  96 SW6       30.20S WCI  20
HAYWARD        CLEAR     29  24  82 CALM      30.19R
SIREN          CLEAR     31  27  86 CALM      30.19R
CUMBERLAND     CLEAR     36  28  75 CALM      30.17R
RICE LAKE      CLEAR     33  28  83 CALM      30.19R
CHETEK         CLEAR     34  28  79 N5        30.18R WCI  29
LADYSMITH      CLEAR     34  26  71 CALM      30.18R
EAU CLAIRE     NOT AVBL
MENOMONIE      CLEAR     39  25  56 CALM      30.18R
NEW RICHMOND   CLEAR     36  28  71 CALM      30.19R
OSCEOLA        CLEAR     32  28  85 CALM      30.22R
$$

WIZ003>005-009-010-017-018-271000-
NORTH CENTRAL WISCONSIN

CITY           SKY/WX    TMP DP  RH WIND       PRES   REMARKS
MANITOWISH WTR CLEAR     28  27  96 NW3       30.14R
ARBOR VITAE    CLEAR     32  28  84 CALM      30.13S
WOODRUFF       CLEAR     32  28  84 CALM      30.13S
RHINELANDER    CLEAR     35  26  69 N3        30.13S
EAGLE RIVER    CLEAR     32  25  76 CALM      30.12S
LAND O LAKES   CLEAR     29  28  93 CALM      30.13S
PHILLIPS       CLEAR     29  25  84 CALM      30.15R
TOMAHAWK       CLEAR     26  24  91 CALM      30.14S
MEDFORD        CLEAR     35  28  75 CALM      30.13S
MERRILL        CLEAR     33  28  83 CALM      30.13S
$$

WIZ029-030-035-036-043>047-271000-
CENTRAL WISCONSIN

CITY           SKY/WX    TMP DP  RH WIND       PRES   REMARKS
WAUSAU         FAIR      38  29  70 N3        30.12S
MOSINEE        CLEAR     37  32  81 N7        30.13S WCI  32
MARSHFIELD     CLEAR     39  29  67 CALM      30.13R
STEVENS POINT  CLEAR     30  25  81 CALM      30.13S
WAUPACA        CLEAR     36  31  81 NW5       30.13R WCI  32
WAUTOMA        NOT AVBL
WISC RAPIDS    CLEAR     35  28  75 CALM      30.14R
CAMP DOUGLAS   NOT AVBL
$$

WIZ011>013-019>022-031-037>040-048>050-271000-
NORTHEAST WISCONSIN

CITY           SKY/WX    TMP DP  RH WIND       PRES   REMARKS
ANTIGO         CLEAR     33  29  82 N5        30.12R WCI  29
SHAWANO        CLEAR     35  29  79 CALM      30.12R
OCONTO         CLEAR     38  29  68 N5        30.10R WCI  35
STURGEON BAY   CLOUDY    39  28  65 N9        30.11S WCI  33
GREEN BAY      CLEAR     39  30  70 NW6       30.10S WCI  35
MANITOWOC      NOT AVBL
APPLETON       CLEAR     37  30  75 NW8       30.11R WCI  31
CLINTONVILLE   CLEAR     36  30  80 NW3       30.11S
OSHKOSH        CLEAR     40  32  73 NW8       30.10R WCI  34
$$

WIZ032>034-041-042-053>061-271000-
SOUTHWEST WISCONSIN

CITY           SKY/WX    TMP DP  RH WIND       PRES   REMARKS
LA CROSSE      CLEAR     42  30  62 N6        30.15R
SPARTA         CLEAR     30  26  83 CALM      30.15R
VIROQUA        CLEAR     41  28  61 E3        30.13R
BOSCOBEL       CLEAR     34  29  82 CALM      30.14R
PRAIRIE DU CHI CLEAR     41  30  65 CALM      30.13R
PLATTEVILLE    CLEAR     37  29  73 E7        30.11R WCI  31
$$

WIZ056-057-062-063-064-067-068-271000-
SOUTH CENTRAL WISCONSIN

CITY           SKY/WX    TMP DP  RH WIND       PRES   REMARKS
REEDSBURG      CLEAR     36  30  79 W3        30.12R
BARABOO/DELLS  CLEAR     34  28  79 CALM      30.12R
LONE ROCK      NOT AVBL
MINERAL POINT  CLEAR     39  28  65 NE3       30.11S
MADISON        CLEAR     34  29  82 CALM      30.11S
MIDDLETON      CLEAR     34  30  86 CALM      30.11S
WATERTOWN      CLEAR     34  32  92 CALM      30.09S
MONROE         CLEAR     37  30  75 N7        30.10S WCI  32
JANESVILLE     CLEAR     36  30  80 CALM      30.10S
$$

WIZ051-052-058>065-066-070>072-271000-
SOUTHEAST WISCONSIN

CITY           SKY/WX    TMP DP  RH WIND       PRES   REMARKS
MILWAUKEE      CLEAR     39  29  67 NW7       30.08S WCI  34
WAUKESHA       CLEAR     34  30  86 NW6       30.10S WCI  29
MILWAUKEE/TIMM CLEAR     36  30  80 CALM      30.09S
RACINE         CLEAR     39  30  70 W6        30.09S WCI  35
BURLINGTON     CLEAR     31  27  83 CALM      30.08S
KENOSHA        CLEAR     37  30  75 NW5       30.07F WCI  33
FOND DU LAC    CLEAR     36  29  75 NW7       30.10S WCI  30
SHEBOYGAN      CLEAR     38  30  73 NW7       30.08S WCI  33
WEST BEND      CLEAR     36  28  75 NW5       30.08S WCI  32
JUNEAU         CLEAR     35  29  81 NW5       30.11S WCI  31
$$

LSZ147-162-271000-
LAKE SUPERIOR

STATION/POSITION TIME  TEMP    WIND        PRES    WAVE
                       AIR SEA DIR/SP/G            HT/PER
                 (UTC) (F)     (DEG/KT/KT) (MB)    (FT/S)
W MID LAKE BUOY  0750   38 35  310/  8/ 10 1022.7F   0
DEVILS ISLAND    0800   38     310/  4/  5 1023.0S
PORT WING        0800   29     160/  3/  4 1022.7S
SAXON HARBOR     0800   30     190/  3/  5 1021.7
$$

LMZ867-665-643>646-271000-
LAKE MICHIGAN

STATION/POSITION TIME  TEMP    WIND        PRES    WAVE
                       AIR SEA DIR/SP/G            HT/PER
                 (UTC) (F)     (DEG/KT/KT) (MB)    (FT/S)
CHAMBERS ISLAND  0800   40     290/  6/ 10 1019.0S
NORTHPORT PIER   0800   40     330/  7/  9 1018.6S
SISTER BAY       0802   42      10/ 11/ 13   N/A
KEWAUNEE LAKESHO 0800   41     320/  5/  8 1017.8S
SHEBOYGAN LAKESH 0800   45     340/ 14/ 15 1019.2S
PORT WASHINGTON  0800   42     320/  5/ 10 1019.3S
MILWAUKEE LAKESH 0800   42     320/  8/ 11   N/A
KENOSHA   LAKESH 0800   42     340/ 10/ 13 1018.3S
$$

TC  - TEMPERATURE IN CELSIUS
VSB - VISIBILITY IN STATUTE MILES
WCI - WIND CHILL INDEX
HX  - HEAT INDEX



USA.gov is the U.S. government's official web portal to all federal, state and local government web resources and services.